Flag for Argentina Weather past 2 weeks in Tucumán, Tucumán, Argentina

Now
75 °F

Partly sunny.


Feels Like: 77 °F
Forecast: 67 / 83 °F
Wind: 6 mph from Northwest

Location: Tucuman Aerodrome

Current Time: Jan 30, 2015 at 11:42:40 AM

Latest Report: Jan 30, 2015 at 11:00 AM


Visibility: N/A

Pressure: 30.07 "Hg

Humidity: 74%

Dew point: 66 °F

Location of TucumánLocation

Historic Weather in Tucumán — Graph

°F

Tucumán temperature yesterday

Maximum temperature yesterday: 84 °F (at 3:00 PM)
Minimum temperature yesterday: 70 °F (at 6:00 AM)
Average temperature yesterday: 77 °F

Past Weeks' High & Low Weather Summary

 TemperatureHumidityPressure
High100 °F (Jan 26, 4:00 PM)100% (Jan 17, 12:00 PM)30.21 "Hg (Jan 17, 12:00 PM)
Low66 °F (Jan 18, 5:00 AM)37% (Jan 26, 4:00 PM)29.62 "Hg (Jan 26, 5:00 PM)
Average79 °F75%29.92 "Hg
* Reported Jan 15 11:00 AM — Jan 30 10:00 AM, Tucumán, Weather by CustomWeather, © 2014

Note: Actual official high and low records may vary slightly from our data, if they occured in-between our weather recording intervals... More about our weather records

Advertising

Tucumán weather history for previous 24 hours

 ConditionsComfort  
Time TempWeatherWind HumidityBarometerVisibility
10:00 AM
Jan 30
73 °FMore clouds than sun.6 mph78%30.09 "HgN/A
9:00 AM72 °FMore clouds than sun.6 mph83%30.07 "HgN/A
8:00 AM70 °FMore clouds than sun.6 mph88%30.07 "HgN/A
7:00 AM70 °FOvercast.5 mph83%30.07 "HgN/A
6:00 AM70 °FOvercast.7 mph83%30.07 "HgN/A
5:00 AM70 °FOvercast.9 mph83%30.07 "HgN/A
4:00 AM72 °FOvercast.5 mph78%30.07 "HgN/A
3:00 AM72 °FOvercast.5 mph78%30.07 "HgN/A
2:00 AM72 °FOvercast.5 mph94%30.09 "HgN/A
1:00 AM73 °FOvercast.5 mph89%30.09 "HgN/A
12:00 AM73 °FOvercast.5 mph89%30.09 "HgN/A
11:00 PM
Jan 29
73 °FPassing clouds.7 mph94%30.07 "HgN/A
10:00 PM75 °FPartly cloudy.8 mph89%30.04 "HgN/A
9:00 PM77 °FPassing clouds.3 mph83%30.01 "HgN/A
8:00 PM77 °FPassing clouds.9 mph83%29.98 "HgN/A
7:00 PM82 °FScattered clouds.3 mph66%29.98 "HgN/A
6:00 PM82 °FScattered clouds.9 mph62%29.98 "HgN/A
5:00 PM84 °FScattered clouds.14 mph62%30.01 "HgN/A
4:00 PM84 °FPartly sunny.14 mph66%30.01 "HgN/A
3:00 PM84 °FPartly sunny.9 mph62%30.04 "HgN/A
2:00 PM82 °FPartly sunny.6 mph62%30.07 "HgN/A
1:00 PM82 °FPartly sunny.6 mph66%30.09 "HgN/A
12:00 PM79 °FBroken clouds.6 mph70%30.09 "HgN/A
11:00 AM75 °FScattered clouds.5 mph78%30.12 "HgN/A
Weather by CustomWeather, © 2014

See weather overviewHow to use our weather pages